Time,TemperatureF,DewpointF,PressureIn,WindDirection,WindDirectionDegrees,WindSpeedMPH,WindSpeedGustMPH,Humidity,HourlyPrecipIn,Conditions,Clouds,dailyrainin,SoftwareType,DateUTC
2013-02-10 00:01:00,20.5,17.8,30.09,South,187,6.2,6.2,89,0.00,,---,0.00,VWS V14.00,2013-02-10 06:01:00,
2013-02-10 00:06:00,20.5,17.8,30.09,South,188,3.9,3.9,89,0.00,,---,0.00,VWS V14.00,2013-02-10 06:06:00,
2013-02-10 00:11:00,20.5,17.8,30.09,SSW,194,5.0,5.0,89,0.00,,---,0.00,VWS V14.00,2013-02-10 06:11:00,
2013-02-10 00:16:00,20.5,17.8,30.09,South,184,3.4,3.4,89,0.00,,---,0.00,VWS V14.00,2013-02-10 06:16:00,
2013-02-10 00:21:00,20.5,17.8,30.09,South,186,5.0,5.0,89,0.00,,---,0.00,VWS V14.00,2013-02-10 06:21:00,
2013-02-10 00:26:00,20.5,17.8,30.09,South,181,3.4,3.4,89,0.00,,---,0.00,VWS V14.00,2013-02-10 06:26:00,
2013-02-10 00:31:00,20.7,18.2,30.09,South,191,4.5,4.5,90,0.00,,---,0.00,VWS V14.00,2013-02-10 06:31:00,
2013-02-10 00:36:00,20.7,18.2,30.09,SSW,200,5.0,5.0,90,0.00,,---,0.00,VWS V14.00,2013-02-10 06:36:00,
2013-02-10 00:41:00,20.7,18.2,30.09,South,184,5.0,5.0,90,0.00,,---,0.00,VWS V14.00,2013-02-10 06:41:00,
2013-02-10 00:46:00,20.7,18.2,30.09,SSW,212,3.4,3.4,90,0.00,,---,0.00,VWS V14.00,2013-02-10 06:46:00,
2013-02-10 00:51:00,20.7,18.2,30.06,SSW,195,3.4,3.4,90,0.00,,---,0.00,VWS V14.00,2013-02-10 06:51:00,
2013-02-10 00:56:00,20.7,18.2,30.06,SSW,195,0.0,0.0,90,0.00,,---,0.00,VWS V14.00,2013-02-10 06:56:00,
2013-02-10 01:01:00,20.7,18.2,30.06,SW,222,3.9,3.9,90,0.00,,---,0.00,VWS V14.00,2013-02-10 07:01:00,
2013-02-10 01:06:00,20.7,18.2,30.06,SSW,197,0.0,0.0,90,0.00,,---,0.00,VWS V14.00,2013-02-10 07:06:00,
2013-02-10 01:11:00,20.8,18.4,30.06,South,189,3.9,3.9,90,0.00,,---,0.00,VWS V14.00,2013-02-10 07:11:00,
2013-02-10 01:16:00,20.8,18.4,30.06,South,186,3.4,3.4,90,0.00,,---,0.00,VWS V14.00,2013-02-10 07:16:00,
2013-02-10 01:21:00,20.8,18.4,30.06,South,173,3.9,3.9,90,0.00,,---,0.00,VWS V14.00,2013-02-10 07:21:00,
2013-02-10 01:26:00,21.0,18.5,30.06,SSW,193,5.0,5.0,90,0.00,,---,0.00,VWS V14.00,2013-02-10 07:26:00,
2013-02-10 01:31:00,21.0,18.8,30.06,SSW,205,4.5,4.5,91,0.00,,---,0.00,VWS V14.00,2013-02-10 07:31:00,
2013-02-10 01:36:00,21.0,18.8,30.06,South,178,3.4,3.4,91,0.00,,---,0.00,VWS V14.00,2013-02-10 07:36:00,
2013-02-10 01:42:00,21.0,18.8,30.06,South,179,4.5,4.5,91,0.00,,---,0.00,VWS V14.00,2013-02-10 07:42:00,
2013-02-10 01:47:00,21.2,19.0,30.06,South,185,3.4,3.4,91,0.00,,---,0.00,VWS V14.00,2013-02-10 07:47:00,
2013-02-10 01:52:00,21.2,19.0,30.06,SSW,195,3.4,3.4,91,0.00,,---,0.00,VWS V14.00,2013-02-10 07:52:00,
2013-02-10 01:57:00,21.2,19.0,30.06,SSW,203,3.9,3.9,91,0.00,,---,0.00,VWS V14.00,2013-02-10 07:57:00,
2013-02-10 02:02:00,21.2,19.0,30.06,South,183,5.0,5.0,91,0.00,,---,0.00,VWS V14.00,2013-02-10 08:02:00,
2013-02-10 02:07:00,21.2,19.0,30.06,SSW,197,3.4,3.4,91,0.00,,---,0.00,VWS V14.00,2013-02-10 08:07:00,
2013-02-10 02:12:00,21.4,19.2,30.06,SSW,197,5.0,5.0,91,0.00,,---,0.00,VWS V14.00,2013-02-10 08:12:00,
2013-02-10 02:17:00,21.2,19.0,30.06,South,186,3.9,3.9,91,0.00,,---,0.00,VWS V14.00,2013-02-10 08:17:00,
2013-02-10 02:22:00,21.2,19.0,30.06,SSW,192,3.9,3.9,91,0.00,,---,0.00,VWS V14.00,2013-02-10 08:22:00,
2013-02-10 02:27:00,21.2,19.0,30.06,South,177,4.5,4.5,91,0.00,,---,0.00,VWS V14.00,2013-02-10 08:27:00,
2013-02-10 02:32:00,21.2,19.0,30.06,South,175,3.4,3.4,91,0.00,,---,0.00,VWS V14.00,2013-02-10 08:32:00,
2013-02-10 02:37:00,21.2,19.0,30.06,South,189,4.5,4.5,91,0.00,,---,0.00,VWS V14.00,2013-02-10 08:37:00,
2013-02-10 02:42:00,21.2,19.0,30.06,SSW,199,4.5,4.5,91,0.00,,---,0.00,VWS V14.00,2013-02-10 08:42:00,
2013-02-10 02:47:00,21.2,19.0,30.06,South,191,5.0,5.0,91,0.00,,---,0.00,VWS V14.00,2013-02-10 08:47:00,
2013-02-10 02:52:00,21.2,19.0,30.06,South,186,4.5,4.5,91,0.00,,---,0.00,VWS V14.00,2013-02-10 08:52:00,
2013-02-10 02:57:00,21.2,19.0,30.06,South,175,4.5,4.5,91,0.00,,---,0.00,VWS V14.00,2013-02-10 08:57:00,
2013-02-10 03:02:00,21.2,19.0,30.06,SSW,199,3.4,3.4,91,0.00,,---,0.00,VWS V14.00,2013-02-10 09:02:00,
2013-02-10 03:07:00,21.2,19.0,30.06,SSW,206,4.5,4.5,91,0.00,,---,0.00,VWS V14.00,2013-02-10 09:07:00,
2013-02-10 03:12:00,21.4,19.2,30.06,SSW,198,3.9,3.9,91,0.00,,---,0.00,VWS V14.00,2013-02-10 09:12:00,
2013-02-10 03:17:00,21.4,19.2,30.06,SSE,160,3.4,3.4,91,0.00,,---,0.00,VWS V14.00,2013-02-10 09:17:00,
2013-02-10 03:22:00,21.4,19.2,30.06,South,189,5.0,5.0,91,0.00,,---,0.00,VWS V14.00,2013-02-10 09:22:00,
2013-02-10 03:27:00,21.4,19.2,30.06,South,174,4.5,4.5,91,0.00,,---,0.00,VWS V14.00,2013-02-10 09:27:00,
2013-02-10 03:32:00,21.4,19.2,30.06,SSE,158,3.4,3.4,91,0.00,,---,0.00,VWS V14.00,2013-02-10 09:32:00,
2013-02-10 03:37:00,21.4,19.2,30.06,SSW,195,4.5,4.5,91,0.00,,---,0.00,VWS V14.00,2013-02-10 09:37:00,
2013-02-10 03:43:00,21.4,19.2,30.06,SSW,206,5.0,5.0,91,0.00,,---,0.00,VWS V14.00,2013-02-10 09:43:00,
2013-02-10 03:48:00,21.4,19.2,30.06,SSW,201,3.9,3.9,91,0.00,,---,0.00,VWS V14.00,2013-02-10 09:48:00,
2013-02-10 03:53:00,21.4,19.2,30.06,SSW,192,3.9,3.9,91,0.00,,---,0.00,VWS V14.00,2013-02-10 09:53:00,
2013-02-10 03:58:00,21.4,19.2,30.06,South,173,3.4,3.4,91,0.00,,---,0.00,VWS V14.00,2013-02-10 09:58:00,
2013-02-10 04:03:00,21.4,19.2,30.03,South,188,5.0,5.0,91,0.00,,---,0.00,VWS V14.00,2013-02-10 10:03:00,
2013-02-10 04:08:00,21.4,19.2,30.03,SSW,205,3.4,3.4,91,0.00,,---,0.00,VWS V14.00,2013-02-10 10:08:00,
2013-02-10 04:13:00,21.4,19.2,30.03,SSW,192,3.4,3.4,91,0.00,,---,0.00,VWS V14.00,2013-02-10 10:13:00,
2013-02-10 04:18:00,21.4,19.2,30.03,SSW,196,5.0,5.0,91,0.00,,---,0.00,VWS V14.00,2013-02-10 10:18:00,
2013-02-10 04:23:00,21.4,19.2,30.03,SW,216,4.5,4.5,91,0.00,,---,0.00,VWS V14.00,2013-02-10 10:23:00,
2013-02-10 04:28:00,21.4,19.2,30.03,SSW,202,6.7,6.7,91,0.00,,---,0.00,VWS V14.00,2013-02-10 10:28:00,
2013-02-10 04:33:00,21.4,19.2,30.03,SSW,199,6.2,6.2,91,0.00,,---,0.00,VWS V14.00,2013-02-10 10:33:00,
2013-02-10 04:38:00,21.4,19.2,30.03,South,178,3.9,3.9,91,0.00,,---,0.00,VWS V14.00,2013-02-10 10:38:00,
2013-02-10 04:43:00,21.4,19.2,30.03,SSW,203,5.0,5.0,91,0.00,,---,0.00,VWS V14.00,2013-02-10 10:43:00,
2013-02-10 04:48:00,21.4,19.2,30.03,SSW,193,3.4,3.4,91,0.00,,---,0.00,VWS V14.00,2013-02-10 10:48:00,
2013-02-10 04:53:00,21.2,19.0,30.03,SSW,193,0.0,0.0,91,0.00,,---,0.00,VWS V14.00,2013-02-10 10:53:00,
2013-02-10 04:58:00,21.2,19.0,30.03,SSW,196,3.4,3.4,91,0.00,,---,0.00,VWS V14.00,2013-02-10 10:58:00,
2013-02-10 05:03:00,21.2,19.0,30.00,SSW,213,5.0,5.0,91,0.00,,---,0.00,VWS V14.00,2013-02-10 11:03:00,
2013-02-10 05:08:00,21.4,19.2,30.00,South,176,0.0,0.0,91,0.00,,---,0.00,VWS V14.00,2013-02-10 11:08:00,
2013-02-10 05:13:00,21.4,19.2,30.00,SSW,200,6.2,6.2,91,0.00,,---,0.00,VWS V14.00,2013-02-10 11:13:00,
2013-02-10 05:18:00,21.4,19.2,30.00,South,183,3.9,3.9,91,0.00,,---,0.00,VWS V14.00,2013-02-10 11:18:00,
2013-02-10 05:23:00,21.4,19.2,30.00,SSW,204,4.5,4.5,91,0.00,,---,0.00,VWS V14.00,2013-02-10 11:23:00,
2013-02-10 05:28:00,21.4,19.2,30.00,SSE,156,3.4,3.4,91,0.00,,---,0.00,VWS V14.00,2013-02-10 11:28:00,
2013-02-10 05:34:00,21.4,19.2,30.00,SW,216,3.4,3.4,91,0.00,,---,0.00,VWS V14.00,2013-02-10 11:34:00,
2013-02-10 05:39:00,21.6,19.3,30.00,SSW,203,5.0,5.0,91,0.00,,---,0.00,VWS V14.00,2013-02-10 11:39:00,
2013-02-10 05:44:00,21.6,19.3,30.00,South,176,0.0,0.0,91,0.00,,---,0.00,VWS V14.00,2013-02-10 11:44:00,
2013-02-10 05:49:00,21.6,19.3,30.00,South,187,2.8,2.8,91,0.00,,---,0.00,VWS V14.00,2013-02-10 11:49:00,
2013-02-10 05:54:00,21.6,19.3,30.00,South,170,0.0,0.0,91,0.00,,---,0.00,VWS V14.00,2013-02-10 11:54:00,
2013-02-10 05:59:00,21.6,19.3,30.00,South,182,0.0,0.0,91,0.00,,---,0.00,VWS V14.00,2013-02-10 11:59:00,
2013-02-10 06:04:00,21.7,19.8,30.00,SE,141,2.8,2.8,92,0.00,,---,0.00,VWS V14.00,2013-02-10 12:04:00,
2013-02-10 06:09:00,21.7,19.8,30.00,SSW,197,6.7,6.7,92,0.00,,---,0.00,VWS V14.00,2013-02-10 12:09:00,
2013-02-10 06:14:00,21.7,19.8,30.00,SSW,195,2.8,2.8,92,0.00,,---,0.00,VWS V14.00,2013-02-10 12:14:00,
2013-02-10 06:19:00,21.7,19.8,29.97,South,187,2.8,2.8,92,0.00,,---,0.00,VWS V14.00,2013-02-10 12:19:00,
2013-02-10 06:24:00,21.7,19.8,29.97,South,184,5.0,5.0,92,0.00,,---,0.00,VWS V14.00,2013-02-10 12:24:00,
2013-02-10 06:29:00,21.7,19.8,29.97,South,183,6.7,6.7,92,0.00,,---,0.00,VWS V14.00,2013-02-10 12:29:00,
2013-02-10 06:34:00,21.7,19.8,30.00,South,191,4.5,4.5,92,0.00,,---,0.00,VWS V14.00,2013-02-10 12:34:00,
2013-02-10 06:39:00,21.7,19.8,30.00,SSW,194,4.5,4.5,92,0.00,,---,0.00,VWS V14.00,2013-02-10 12:39:00,
2013-02-10 06:44:00,21.7,19.8,30.00,SSW,192,2.8,2.8,92,0.00,,---,0.00,VWS V14.00,2013-02-10 12:44:00,
2013-02-10 06:49:00,21.7,19.8,29.97,South,189,5.0,5.0,92,0.00,,---,0.00,VWS V14.00,2013-02-10 12:49:00,
2013-02-10 06:54:00,21.7,19.8,29.97,SSW,195,3.4,3.4,92,0.00,,---,0.00,VWS V14.00,2013-02-10 12:54:00,
2013-02-10 06:59:00,21.7,19.8,29.97,SW,226,8.4,8.4,92,0.00,,---,0.00,VWS V14.00,2013-02-10 12:59:00,
2013-02-10 07:04:00,21.7,19.8,29.97,South,170,3.9,3.9,92,0.00,,---,0.00,VWS V14.00,2013-02-10 13:04:00,
2013-02-10 07:09:00,21.7,19.8,29.97,SSW,198,4.5,4.5,92,0.00,,---,0.00,VWS V14.00,2013-02-10 13:09:00,
2013-02-10 07:14:00,21.7,19.8,29.97,South,181,5.0,5.0,92,0.00,,---,0.00,VWS V14.00,2013-02-10 13:14:00,
2013-02-10 07:19:00,21.6,19.6,29.97,SE,130,2.8,2.8,92,0.00,,---,0.00,VWS V14.00,2013-02-10 13:19:00,
2013-02-10 07:24:00,21.6,19.6,29.97,SSW,195,4.5,4.5,92,0.00,,---,0.00,VWS V14.00,2013-02-10 13:24:00,
2013-02-10 07:29:00,21.6,19.6,29.97,SSW,200,0.0,0.0,92,0.00,,---,0.00,VWS V14.00,2013-02-10 13:29:00,
2013-02-10 07:34:00,21.7,19.8,29.94,SSW,192,3.4,3.4,92,0.00,,---,0.00,VWS V14.00,2013-02-10 13:34:00,
2013-02-10 07:39:00,21.7,19.8,29.94,South,171,3.4,3.4,92,0.00,,---,0.00,VWS V14.00,2013-02-10 13:39:00,
2013-02-10 07:44:00,21.7,19.8,29.94,SSE,166,4.5,4.5,92,0.00,,---,0.00,VWS V14.00,2013-02-10 13:44:00,
2013-02-10 07:49:00,21.7,19.8,29.94,East,101,0.0,0.0,92,0.00,,---,0.00,VWS V14.00,2013-02-10 13:49:00,
2013-02-10 07:54:00,21.7,19.5,29.94,SE,127,3.4,3.4,91,0.00,,---,0.00,VWS V14.00,2013-02-10 13:54:00,
2013-02-10 07:59:00,21.7,19.5,29.94,SSW,201,4.5,4.5,91,0.00,,---,0.00,VWS V14.00,2013-02-10 13:59:00,
2013-02-10 08:04:00,21.9,19.7,29.91,ESE,119,3.9,3.9,91,0.00,,---,0.00,VWS V14.00,2013-02-10 14:04:00,
2013-02-10 08:09:00,21.9,19.7,29.91,SE,131,2.8,2.8,91,0.00,,---,0.00,VWS V14.00,2013-02-10 14:09:00,
2013-02-10 08:14:00,21.9,19.7,29.91,South,170,4.5,4.5,91,0.00,,---,0.00,VWS V14.00,2013-02-10 14:14:00,
2013-02-10 08:19:00,21.9,19.7,29.91,SSE,162,0.0,0.0,91,0.00,,---,0.00,VWS V14.00,2013-02-10 14:19:00,
2013-02-10 08:24:00,21.9,19.7,29.91,WSW,251,3.4,3.4,91,0.00,,---,0.00,VWS V14.00,2013-02-10 14:24:00,
2013-02-10 08:29:00,22.1,19.9,29.91,NE,35,3.4,3.4,91,0.00,,---,0.00,VWS V14.00,2013-02-10 14:29:00,
2013-02-10 08:34:00,22.1,19.9,29.88,SE,140,0.0,0.0,91,0.00,,---,0.00,VWS V14.00,2013-02-10 14:34:00,
2013-02-10 08:39:00,22.1,19.9,29.88,South,176,2.8,2.8,91,0.00,,---,0.00,VWS V14.00,2013-02-10 14:39:00,
2013-02-10 08:44:00,22.3,20.1,29.88,SSE,161,3.4,3.4,91,0.00,,---,0.00,VWS V14.00,2013-02-10 14:44:00,
2013-02-10 08:49:00,22.3,20.1,29.88,NE,54,3.4,3.4,91,0.00,,---,0.00,VWS V14.00,2013-02-10 14:49:00,
2013-02-10 08:54:00,22.5,20.2,29.88,SSE,165,3.4,3.4,91,0.00,,---,0.00,VWS V14.00,2013-02-10 14:54:00,
2013-02-10 08:59:00,22.5,20.2,29.88,SSE,154,0.0,0.0,91,0.00,,---,0.00,VWS V14.00,2013-02-10 14:59:00,
2013-02-10 09:04:00,22.6,20.4,29.88,SE,146,0.0,0.0,91,0.00,,---,0.00,VWS V14.00,2013-02-10 15:04:00,
2013-02-10 09:09:00,22.8,20.6,29.88,SSE,167,3.4,3.4,91,0.00,,---,0.00,VWS V14.00,2013-02-10 15:09:00,
2013-02-10 09:14:00,22.8,20.6,29.88,SSE,151,2.8,2.8,91,0.00,,---,0.00,VWS V14.00,2013-02-10 15:14:00,
2013-02-10 09:19:00,23.0,20.8,29.88,SSW,198,2.8,2.8,91,0.00,,---,0.00,VWS V14.00,2013-02-10 15:19:00,
2013-02-10 09:24:00,23.2,21.0,29.88,SSW,200,3.4,3.4,91,0.00,,---,0.00,VWS V14.00,2013-02-10 15:24:00,
2013-02-10 09:29:00,23.2,21.0,29.88,SW,221,4.5,4.5,91,0.00,,---,0.00,VWS V14.00,2013-02-10 15:29:00,
2013-02-10 09:35:00,23.5,21.3,29.88,SSE,163,3.4,3.4,91,0.00,,---,0.00,VWS V14.00,2013-02-10 15:35:00,
2013-02-10 09:40:00,23.5,21.3,29.88,SSE,168,5.0,5.0,91,0.00,,---,0.00,VWS V14.00,2013-02-10 15:40:00,
2013-02-10 09:45:00,23.7,21.5,29.88,SSW,198,3.9,3.9,91,0.00,,---,0.00,VWS V14.00,2013-02-10 15:45:00,
2013-02-10 09:50:00,23.9,21.7,29.88,South,188,4.5,4.5,91,0.00,,---,0.00,VWS V14.00,2013-02-10 15:50:00,
2013-02-10 09:55:00,24.1,21.8,29.88,South,176,3.9,3.9,91,0.00,,---,0.00,VWS V14.00,2013-02-10 15:55:00,
2013-02-10 10:00:00,24.3,22.0,29.88,SSW,210,3.4,3.4,91,0.00,,---,0.00,VWS V14.00,2013-02-10 16:00:00,
2013-02-10 10:05:00,24.3,22.0,29.88,SSW,203,4.5,4.5,91,0.00,,---,0.00,VWS V14.00,2013-02-10 16:05:00,
2013-02-10 10:10:00,24.4,22.2,29.88,SSE,161,3.4,3.4,91,0.00,,---,0.00,VWS V14.00,2013-02-10 16:10:00,
2013-02-10 10:15:00,24.6,22.4,29.88,South,178,3.4,3.4,91,0.00,,---,0.00,VWS V14.00,2013-02-10 16:15:00,
2013-02-10 10:20:00,24.6,22.4,29.88,South,183,2.8,2.8,91,0.00,,---,0.00,VWS V14.00,2013-02-10 16:20:00,
2013-02-10 10:25:00,24.8,22.8,29.88,SSE,167,2.8,2.8,92,0.00,,---,0.00,VWS V14.00,2013-02-10 16:25:00,
2013-02-10 10:30:00,25.0,22.7,29.88,South,174,3.4,3.4,91,0.00,,---,0.00,VWS V14.00,2013-02-10 16:30:00,
2013-02-10 10:35:00,25.2,22.9,29.88,SE,136,4.5,4.5,91,0.00,,---,0.00,VWS V14.00,2013-02-10 16:35:00,
2013-02-10 10:40:00,25.3,23.1,29.88,SSW,207,4.5,4.5,91,0.00,,---,0.00,VWS V14.00,2013-02-10 16:40:00,
2013-02-10 10:45:00,25.7,23.7,29.88,SSW,200,6.2,6.2,92,0.00,,---,0.00,VWS V14.00,2013-02-10 16:45:00,
2013-02-10 10:50:00,25.9,23.9,29.88,SSE,158,3.4,3.4,92,0.00,,---,0.00,VWS V14.00,2013-02-10 16:50:00,
2013-02-10 10:55:00,26.1,24.1,29.88,SSW,210,5.0,5.0,92,0.00,,---,0.00,VWS V14.00,2013-02-10 16:55:00,
2013-02-10 11:00:00,26.1,24.1,29.88,SE,135,5.0,5.0,92,0.00,,---,0.00,VWS V14.00,2013-02-10 17:00:00,
2013-02-10 11:05:00,26.2,24.2,29.88,SSE,165,5.0,5.0,92,0.00,,---,0.00,VWS V14.00,2013-02-10 17:05:00,
2013-02-10 11:10:00,26.4,24.4,29.88,South,181,3.4,3.4,92,0.00,,---,0.00,VWS V14.00,2013-02-10 17:10:00,
2013-02-10 11:15:00,26.4,24.7,29.88,SSE,167,6.2,6.2,93,0.00,,---,0.00,VWS V14.00,2013-02-10 17:15:00,
2013-02-10 11:20:00,26.6,24.9,29.85,SSE,162,3.9,3.9,93,0.00,,---,0.00,VWS V14.00,2013-02-10 17:20:00,
2013-02-10 11:25:00,26.6,24.9,29.85,South,190,4.5,4.5,93,0.00,,---,0.00,VWS V14.00,2013-02-10 17:25:00,
2013-02-10 11:30:00,26.8,24.8,29.85,SSW,196,5.0,5.0,92,0.00,,---,0.00,VWS V14.00,2013-02-10 17:30:00,
2013-02-10 11:35:00,26.8,25.0,29.85,SSW,212,6.2,6.2,93,0.00,,---,0.00,VWS V14.00,2013-02-10 17:35:00,
2013-02-10 11:40:00,27.0,25.2,29.85,SSE,147,5.0,5.0,93,0.00,,---,0.00,VWS V14.00,2013-02-10 17:40:00,
2013-02-10 11:45:00,27.0,25.2,29.85,SSW,196,3.4,3.4,93,0.00,,---,0.00,VWS V14.00,2013-02-10 17:45:00,
2013-02-10 11:50:00,27.0,25.2,29.82,South,191,3.4,3.4,93,0.00,,---,0.00,VWS V14.00,2013-02-10 17:50:00,
2013-02-10 11:55:00,27.1,25.4,29.82,South,173,3.4,3.4,93,0.00,,---,0.00,VWS V14.00,2013-02-10 17:55:00,
2013-02-10 12:00:00,27.3,25.6,29.82,South,179,0.0,0.0,93,0.00,,---,0.00,VWS V14.00,2013-02-10 18:00:00,
2013-02-10 12:05:00,27.5,25.8,29.79,SSE,155,3.4,3.4,93,0.00,,---,0.00,VWS V14.00,2013-02-10 18:05:00,
2013-02-10 12:10:00,27.7,25.9,29.79,SSE,168,6.2,6.2,93,0.00,,---,0.00,VWS V14.00,2013-02-10 18:10:00,
2013-02-10 12:15:00,27.9,26.1,29.79,SSW,199,3.4,3.4,93,0.00,,---,0.00,VWS V14.00,2013-02-10 18:15:00,
2013-02-10 12:20:00,27.9,26.1,29.76,South,188,3.4,3.4,93,0.00,,---,0.00,VWS V14.00,2013-02-10 18:20:00,
2013-02-10 12:25:00,28.0,26.3,29.76,South,183,4.5,4.5,93,0.00,,---,0.00,VWS V14.00,2013-02-10 18:25:00,
2013-02-10 12:31:00,28.0,26.5,29.76,SW,228,3.4,3.4,94,0.00,,---,0.00,VWS V14.00,2013-02-10 18:31:00,
2013-02-10 12:36:00,28.2,26.7,29.73,ESE,115,0.0,0.0,94,0.00,,---,0.00,VWS V14.00,2013-02-10 18:36:00,
2013-02-10 12:41:00,28.2,26.7,29.73,SSE,158,6.2,6.2,94,0.00,,---,0.00,VWS V14.00,2013-02-10 18:41:00,
2013-02-10 12:46:00,28.4,26.9,29.73,SSE,168,3.9,3.9,94,0.00,,---,0.00,VWS V14.00,2013-02-10 18:46:00,
2013-02-10 12:51:00,28.4,26.9,29.73,South,184,7.8,7.8,94,0.00,,---,0.00,VWS V14.00,2013-02-10 18:51:00,
2013-02-10 12:56:00,28.6,26.8,29.73,SSE,157,3.4,3.4,93,0.00,,---,0.00,VWS V14.00,2013-02-10 18:56:00,
2013-02-10 13:01:00,28.6,26.8,29.73,South,191,6.7,6.7,93,0.00,,---,0.00,VWS V14.00,2013-02-10 19:01:00,
2013-02-10 13:06:00,28.8,27.2,29.73,SE,135,3.4,3.4,94,0.00,,---,0.00,VWS V14.00,2013-02-10 19:06:00,
2013-02-10 13:11:00,28.8,27.2,29.73,ENE,73,4.5,4.5,94,0.00,,---,0.00,VWS V14.00,2013-02-10 19:11:00,
2013-02-10 13:16:00,28.9,27.4,29.73,SE,140,3.4,3.4,94,0.00,,---,0.00,VWS V14.00,2013-02-10 19:16:00,
2013-02-10 13:21:00,29.1,27.6,29.70,South,188,10.1,10.1,94,0.00,,---,0.00,VWS V14.00,2013-02-10 19:21:00,
2013-02-10 13:26:00,29.3,27.8,29.70,SSE,154,3.4,3.4,94,0.00,,---,0.00,VWS V14.00,2013-02-10 19:26:00,
2013-02-10 13:31:00,29.3,27.8,29.70,WSW,243,5.6,5.6,94,0.00,,---,0.00,VWS V14.00,2013-02-10 19:31:00,
2013-02-10 13:36:00,29.5,28.0,29.67,SSE,151,10.1,10.1,94,0.00,,---,0.00,VWS V14.00,2013-02-10 19:36:00,
2013-02-10 13:41:00,29.7,28.1,29.67,WSW,240,4.5,4.5,94,0.00,,---,0.00,VWS V14.00,2013-02-10 19:41:00,
2013-02-10 13:46:00,29.7,28.1,29.67,SSE,152,3.4,3.4,94,0.00,,---,0.00,VWS V14.00,2013-02-10 19:46:00,
2013-02-10 13:51:00,29.8,28.3,29.65,SSE,168,3.4,3.4,94,0.00,,---,0.00,VWS V14.00,2013-02-10 19:51:00,
2013-02-10 13:56:00,29.8,28.3,29.65,East,101,3.4,3.4,94,0.00,,---,0.00,VWS V14.00,2013-02-10 19:56:00,
2013-02-10 14:01:00,29.8,28.3,29.65,SE,146,7.8,7.8,94,0.00,,---,0.00,VWS V14.00,2013-02-10 20:01:00,
2013-02-10 14:06:00,30.0,28.5,29.65,South,178,6.2,6.2,94,0.00,,---,0.00,VWS V14.00,2013-02-10 20:06:00,
2013-02-10 14:11:00,30.2,28.7,29.65,South,176,3.9,3.9,94,0.00,,---,0.00,VWS V14.00,2013-02-10 20:11:00,
2013-02-10 14:16:00,30.2,28.7,29.65,South,169,4.5,4.5,94,0.00,,---,0.00,VWS V14.00,2013-02-10 20:16:00,
2013-02-10 14:21:00,30.4,28.9,29.62,SSE,167,4.5,4.5,94,0.00,,---,0.00,VWS V14.00,2013-02-10 20:21:00,
2013-02-10 14:26:00,30.6,29.0,29.62,ESE,116,3.4,3.4,94,0.00,,---,0.00,VWS V14.00,2013-02-10 20:26:00,
2013-02-10 14:31:00,30.7,29.2,29.62,ESE,113,4.5,4.5,94,0.00,,---,0.00,VWS V14.00,2013-02-10 20:31:00,
2013-02-10 14:36:00,30.9,29.4,29.59,East,92,3.9,3.9,94,0.00,,---,0.00,VWS V14.00,2013-02-10 20:36:00,
2013-02-10 14:41:00,30.9,29.4,29.59,SW,232,5.6,5.6,94,0.00,,---,0.00,VWS V14.00,2013-02-10 20:41:00,
2013-02-10 14:46:00,31.1,29.6,29.59,ESE,115,4.5,4.5,94,0.00,,---,0.00,VWS V14.00,2013-02-10 20:46:00,
2013-02-10 14:51:00,31.1,29.6,29.59,East,82,3.4,3.4,94,0.00,,---,0.00,VWS V14.00,2013-02-10 20:51:00,
2013-02-10 14:56:00,31.3,29.8,29.59,East,99,3.9,3.9,94,0.00,,---,0.00,VWS V14.00,2013-02-10 20:56:00,
2013-02-10 15:01:00,31.5,29.9,29.59,South,187,4.5,4.5,94,0.00,,---,0.00,VWS V14.00,2013-02-10 21:01:00,
2013-02-10 15:06:00,31.6,30.1,29.59,SSE,151,5.0,5.0,94,0.00,,---,0.00,VWS V14.00,2013-02-10 21:06:00,
2013-02-10 15:11:00,31.6,29.9,29.59,SE,140,3.4,3.4,93,0.00,,---,0.00,VWS V14.00,2013-02-10 21:11:00,
2013-02-10 15:16:00,31.6,29.9,29.56,SSE,155,3.9,3.9,93,0.00,,---,0.00,VWS V14.00,2013-02-10 21:16:00,
2013-02-10 15:21:00,31.6,29.9,29.56,East,93,3.9,3.9,93,0.00,,---,0.00,VWS V14.00,2013-02-10 21:21:00,
2013-02-10 15:26:00,31.8,30.0,29.56,ESE,119,3.9,3.9,93,0.00,,---,0.00,VWS V14.00,2013-02-10 21:26:00,
2013-02-10 15:31:00,31.8,30.0,29.56,SSE,153,4.5,4.5,93,0.00,,---,0.00,VWS V14.00,2013-02-10 21:31:00,
2013-02-10 15:36:00,32.0,30.2,29.56,ESE,122,3.9,3.9,93,0.00,,---,0.00,VWS V14.00,2013-02-10 21:36:00,
2013-02-10 15:41:00,32.2,30.1,29.56,SSE,168,4.5,4.5,92,0.00,,---,0.00,VWS V14.00,2013-02-10 21:41:00,
2013-02-10 15:46:00,32.2,30.1,29.56,South,190,5.0,5.0,92,0.00,,---,0.00,VWS V14.00,2013-02-10 21:46:00,
2013-02-10 15:51:00,32.4,30.3,29.56,SSW,212,7.3,7.3,92,0.00,,---,0.00,VWS V14.00,2013-02-10 21:51:00,
2013-02-10 15:56:00,32.5,30.5,29.56,SE,145,4.5,4.5,92,0.00,,---,0.00,VWS V14.00,2013-02-10 21:56:00,
2013-02-10 16:01:00,32.5,30.5,29.56,SW,215,6.2,6.2,92,0.00,,---,0.00,VWS V14.00,2013-02-10 22:01:00,
2013-02-10 16:07:00,32.5,30.5,29.56,South,189,6.2,6.2,92,0.00,,---,0.00,VWS V14.00,2013-02-10 22:07:00,
2013-02-10 16:12:00,32.5,30.5,29.56,SSE,155,2.8,2.8,92,0.00,,---,0.00,VWS V14.00,2013-02-10 22:12:00,
2013-02-10 16:17:00,32.5,30.5,29.56,SSE,149,4.5,4.5,92,0.00,,---,0.00,VWS V14.00,2013-02-10 22:17:00,
2013-02-10 16:22:00,32.5,30.5,29.56,SSE,152,5.0,5.0,92,0.00,,---,0.00,VWS V14.00,2013-02-10 22:22:00,
2013-02-10 16:27:00,32.5,30.7,29.56,South,170,3.9,3.9,93,0.00,,---,0.00,VWS V14.00,2013-02-10 22:27:00,
2013-02-10 16:32:00,32.5,30.7,29.53,SSE,159,3.4,3.4,93,0.00,,---,0.00,VWS V14.00,2013-02-10 22:32:00,
2013-02-10 16:37:00,32.5,30.7,29.53,SSE,164,3.9,3.9,93,0.00,,---,0.00,VWS V14.00,2013-02-10 22:37:00,
2013-02-10 16:42:00,32.5,30.7,29.53,South,173,3.4,3.4,93,0.00,,---,0.00,VWS V14.00,2013-02-10 22:42:00,
2013-02-10 16:47:00,32.5,30.7,29.53,SE,127,3.9,3.9,93,0.00,,---,0.00,VWS V14.00,2013-02-10 22:47:00,
2013-02-10 16:52:00,32.5,30.7,29.53,SSW,193,4.5,4.5,93,0.00,,---,0.00,VWS V14.00,2013-02-10 22:52:00,
2013-02-10 16:57:00,32.7,31.2,29.53,SE,135,6.2,6.2,94,0.00,,---,0.00,VWS V14.00,2013-02-10 22:57:00,
2013-02-10 17:02:00,32.7,31.2,29.53,SSW,207,4.5,4.5,94,0.00,,---,0.00,VWS V14.00,2013-02-10 23:02:00,
2013-02-10 17:07:00,32.7,31.5,29.53,WSW,237,6.7,6.7,95,0.00,,---,0.00,VWS V14.00,2013-02-10 23:07:00,
2013-02-10 17:12:00,32.7,31.5,29.53,SW,223,6.7,6.7,95,0.00,,---,0.00,VWS V14.00,2013-02-10 23:12:00,
2013-02-10 17:17:00,32.7,31.5,29.53,SW,214,5.0,5.0,95,0.00,,---,0.00,VWS V14.00,2013-02-10 23:17:00,
2013-02-10 17:22:00,32.7,31.5,29.53,SSW,202,3.4,3.4,95,0.00,,---,0.00,VWS V14.00,2013-02-10 23:22:00,
2013-02-10 17:27:00,32.7,31.7,29.53,East,83,7.3,7.3,96,0.00,,---,0.00,VWS V14.00,2013-02-10 23:27:00,
2013-02-10 17:32:00,32.7,31.7,29.53,South,186,4.5,4.5,96,0.00,,---,0.00,VWS V14.00,2013-02-10 23:32:00,
2013-02-10 17:37:00,32.7,31.7,29.53,SSW,192,3.9,3.9,96,0.00,,---,0.00,VWS V14.00,2013-02-10 23:37:00,
2013-02-10 17:42:00,32.7,31.7,29.53,SW,217,6.2,6.2,96,0.00,,---,0.00,VWS V14.00,2013-02-10 23:42:00,
2013-02-10 17:47:00,32.5,31.5,29.53,WSW,255,3.4,3.4,96,0.00,,---,0.00,VWS V14.00,2013-02-10 23:47:00,
2013-02-10 17:52:00,32.5,31.5,29.53,South,179,6.7,6.7,96,0.00,,---,0.00,VWS V14.00,2013-02-10 23:52:00,
2013-02-10 17:57:00,32.5,31.8,29.53,SSW,193,4.5,4.5,97,0.00,,---,0.00,VWS V14.00,2013-02-10 23:57:00,
2013-02-10 18:02:00,32.5,31.8,29.53,SSW,206,3.9,3.9,97,0.00,,---,0.00,VWS V14.00,2013-02-11 00:02:00,
2013-02-10 18:07:00,32.5,31.8,29.53,ESE,121,3.4,3.4,97,0.00,,---,0.00,VWS V14.00,2013-02-11 00:07:00,
2013-02-10 18:12:00,32.5,31.8,29.53,South,177,0.0,0.0,97,0.00,,---,0.00,VWS V14.00,2013-02-11 00:12:00,
2013-02-10 18:17:00,32.4,31.6,29.50,South,188,7.3,7.3,97,0.00,,---,0.00,VWS V14.00,2013-02-11 00:17:00,
2013-02-10 18:22:00,32.4,31.6,29.50,SSW,193,2.8,2.8,97,0.00,,---,0.00,VWS V14.00,2013-02-11 00:22:00,
2013-02-10 18:27:00,32.4,31.6,29.50,SSW,200,5.0,5.0,97,0.00,,---,0.00,VWS V14.00,2013-02-11 00:27:00,
2013-02-10 18:32:00,32.4,31.6,29.50,SE,141,3.4,3.4,97,0.00,,---,0.00,VWS V14.00,2013-02-11 00:32:00,
2013-02-10 18:38:00,32.4,31.9,29.50,South,186,3.9,3.9,98,0.00,,---,0.00,VWS V14.00,2013-02-11 00:38:00,
2013-02-10 18:43:00,32.2,31.7,29.50,East,92,3.9,3.9,98,0.00,,---,0.00,VWS V14.00,2013-02-11 00:43:00,
2013-02-10 18:48:00,32.2,31.7,29.50,SSW,210,4.5,4.5,98,0.00,,---,0.00,VWS V14.00,2013-02-11 00:48:00,
2013-02-10 18:53:00,32.2,31.7,29.50,South,175,5.0,5.0,98,0.00,,---,0.00,VWS V14.00,2013-02-11 00:53:00,
2013-02-10 18:58:00,32.2,31.7,29.50,SSW,201,3.4,3.4,98,0.00,,---,0.00,VWS V14.00,2013-02-11 00:58:00,
2013-02-10 19:03:00,32.2,31.7,29.50,South,185,3.9,3.9,98,0.00,,---,0.00,VWS V14.00,2013-02-11 01:03:00,
2013-02-10 19:08:00,32.2,31.7,29.50,South,186,3.4,3.4,98,0.00,,---,0.00,VWS V14.00,2013-02-11 01:08:00,
2013-02-10 19:13:00,32.2,31.7,29.50,South,181,3.4,3.4,98,0.00,,---,0.00,VWS V14.00,2013-02-11 01:13:00,
2013-02-10 19:18:00,32.2,31.7,29.50,South,189,3.9,3.9,98,0.00,,---,0.00,VWS V14.00,2013-02-11 01:18:00,
2013-02-10 19:23:00,32.2,31.7,29.50,South,186,3.9,3.9,98,0.00,,---,0.00,VWS V14.00,2013-02-11 01:23:00,
2013-02-10 19:28:00,32.0,31.5,29.50,SSW,195,0.0,0.0,98,0.00,,---,0.00,VWS V14.00,2013-02-11 01:28:00,
2013-02-10 19:33:00,32.0,31.5,29.47,SSW,210,3.9,3.9,98,0.00,,---,0.00,VWS V14.00,2013-02-11 01:33:00,
2013-02-10 19:38:00,32.0,31.5,29.47,South,184,5.0,5.0,98,0.00,,---,0.00,VWS V14.00,2013-02-11 01:38:00,
2013-02-10 19:43:00,32.0,31.5,29.47,SSE,164,3.9,3.9,98,0.00,,---,0.00,VWS V14.00,2013-02-11 01:43:00,
2013-02-10 19:48:00,32.0,31.5,29.47,South,182,3.9,3.9,98,0.00,,---,0.00,VWS V14.00,2013-02-11 01:48:00,
2013-02-10 19:53:00,32.0,31.5,29.47,South,180,4.5,4.5,98,0.00,,---,0.00,VWS V14.00,2013-02-11 01:53:00,
2013-02-10 19:58:00,32.2,31.7,29.47,SSW,193,3.4,3.4,98,0.00,,---,0.00,VWS V14.00,2013-02-11 01:58:00,
2013-02-10 20:03:00,32.0,31.5,29.47,South,188,2.8,2.8,98,0.00,,---,0.00,VWS V14.00,2013-02-11 02:03:00,
2013-02-10 20:08:00,32.2,31.7,29.47,SSE,167,4.5,4.5,98,0.00,,---,0.00,VWS V14.00,2013-02-11 02:08:00,
2013-02-10 20:13:00,32.2,31.7,29.47,SW,220,0.0,0.0,98,0.00,,---,0.00,VWS V14.00,2013-02-11 02:13:00,
2013-02-10 20:18:00,32.2,31.7,29.47,South,179,0.0,0.0,98,0.00,,---,0.00,VWS V14.00,2013-02-11 02:18:00,
2013-02-10 20:23:00,32.2,31.7,29.47,South,184,2.8,2.8,98,0.00,,---,0.00,VWS V14.00,2013-02-11 02:23:00,
2013-02-10 20:28:00,32.2,31.7,29.47,South,185,0.0,0.0,98,0.00,,---,0.00,VWS V14.00,2013-02-11 02:28:00,
2013-02-10 20:33:00,32.2,31.7,29.47,SSW,198,3.9,3.9,98,0.00,,---,0.00,VWS V14.00,2013-02-11 02:33:00,
2013-02-10 20:38:00,32.2,31.7,29.47,SW,218,0.0,0.0,98,0.00,,---,0.00,VWS V14.00,2013-02-11 02:38:00,
2013-02-10 20:43:00,32.2,31.7,29.47,SE,136,0.0,0.0,98,0.00,,---,0.00,VWS V14.00,2013-02-11 02:43:00,
2013-02-10 20:49:00,32.2,31.7,29.47,SSE,161,3.4,3.4,98,0.00,,---,0.00,VWS V14.00,2013-02-11 02:49:00,
2013-02-10 20:54:00,32.2,31.7,29.47,SSW,197,3.4,3.4,98,0.00,,---,0.00,VWS V14.00,2013-02-11 02:54:00,
2013-02-10 20:59:00,32.2,31.7,29.47,South,185,3.4,3.4,98,0.00,,---,0.00,VWS V14.00,2013-02-11 02:59:00,
2013-02-10 21:04:00,32.2,31.7,29.44,SSW,202,2.8,2.8,98,0.00,,---,0.00,VWS V14.00,2013-02-11 03:04:00,
2013-02-10 21:09:00,32.2,31.7,29.44,SSW,205,0.0,0.0,98,0.00,,---,0.00,VWS V14.00,2013-02-11 03:09:00,
2013-02-10 21:14:00,32.2,31.7,29.44,SSW,201,0.0,0.0,98,0.00,,---,0.00,VWS V14.00,2013-02-11 03:14:00,
2013-02-10 21:19:00,32.2,31.7,29.44,SSE,162,3.4,3.4,98,0.00,,---,0.00,VWS V14.00,2013-02-11 03:19:00,
2013-02-10 21:24:00,32.2,31.7,29.44,South,171,3.9,3.9,98,0.00,,---,0.00,VWS V14.00,2013-02-11 03:24:00,
2013-02-10 21:29:00,32.4,31.9,29.44,South,177,0.0,0.0,98,0.00,,---,0.00,VWS V14.00,2013-02-11 03:29:00,
2013-02-10 21:34:00,32.4,31.9,29.44,WSW,246,3.4,3.4,98,0.00,,---,0.00,VWS V14.00,2013-02-11 03:34:00,
2013-02-10 21:39:00,32.4,32.1,29.44,South,190,0.0,0.0,99,0.00,,---,0.00,VWS V14.00,2013-02-11 03:39:00,
2013-02-10 21:44:00,32.4,32.1,29.44,SW,218,2.8,2.8,99,0.00,,---,0.00,VWS V14.00,2013-02-11 03:44:00,
2013-02-10 21:49:00,32.5,32.0,29.44,SE,130,0.0,0.0,98,0.00,,---,0.00,VWS V14.00,2013-02-11 03:49:00,
2013-02-10 21:54:00,32.5,32.0,29.44,SE,131,0.0,0.0,98,0.00,,---,0.00,VWS V14.00,2013-02-11 03:54:00,
2013-02-10 21:59:00,32.5,32.0,29.44,SSE,162,2.8,2.8,98,0.00,,---,0.00,VWS V14.00,2013-02-11 03:59:00,
2013-02-10 22:04:00,32.5,32.0,29.44,South,188,0.0,0.0,98,0.00,,---,0.00,VWS V14.00,2013-02-11 04:04:00,
2013-02-10 22:09:00,32.5,32.0,29.44,South,191,0.0,0.0,98,0.00,,---,0.00,VWS V14.00,2013-02-11 04:09:00,
2013-02-10 22:14:00,32.5,32.0,29.44,SE,138,0.0,0.0,98,0.00,,---,0.00,VWS V14.00,2013-02-11 04:14:00,
2013-02-10 22:19:00,32.5,32.0,29.41,SE,135,0.0,0.0,98,0.00,,---,0.00,VWS V14.00,2013-02-11 04:19:00,
2013-02-10 22:24:00,32.5,32.0,29.41,WSW,240,0.0,0.0,98,0.00,,---,0.00,VWS V14.00,2013-02-11 04:24:00,
2013-02-10 22:29:00,32.5,32.0,29.41,SSW,210,0.0,0.0,98,0.00,,---,0.00,VWS V14.00,2013-02-11 04:29:00,
2013-02-10 22:34:00,32.5,32.0,29.41,SSW,200,0.0,0.0,98,0.00,,---,0.00,VWS V14.00,2013-02-11 04:34:00,
2013-02-10 22:39:00,32.5,32.0,29.41,ESE,110,0.0,0.0,98,0.00,,---,0.00,VWS V14.00,2013-02-11 04:39:00,
2013-02-10 22:44:00,32.5,32.0,29.41,ESE,117,0.0,0.0,98,0.00,,---,0.00,VWS V14.00,2013-02-11 04:44:00,
2013-02-10 22:49:00,32.5,32.0,29.41,SE,141,0.0,0.0,98,0.00,,---,0.00,VWS V14.00,2013-02-11 04:49:00,
2013-02-10 22:54:00,32.5,32.0,29.41,SE,141,0.0,0.0,98,0.00,,---,0.00,VWS V14.00,2013-02-11 04:54:00,
2013-02-10 22:59:00,32.5,32.0,29.41,SSW,197,2.8,2.8,98,0.00,,---,0.00,VWS V14.00,2013-02-11 04:59:00,
2013-02-10 23:00:00,32.5,32.0,29.41,SSW,197,0.0,0.0,98,0.00,,---,0.00,VWS V14.00,2013-02-11 05:00:00,
2013-02-10 23:05:00,32.5,32.0,29.41,SW,228,0.0,0.0,98,0.00,,---,0.00,VWS V14.00,2013-02-11 05:05:00,
2013-02-10 23:10:00,32.4,31.9,29.41,South,188,0.0,0.0,98,0.00,,---,0.00,VWS V14.00,2013-02-11 05:10:00,
2013-02-10 23:15:00,32.4,31.9,29.41,SSW,199,0.0,0.0,98,0.00,,---,0.00,VWS V14.00,2013-02-11 05:15:00,
2013-02-10 23:20:00,32.4,31.9,29.41,SSE,151,0.0,0.0,98,0.00,,---,0.00,VWS V14.00,2013-02-11 05:20:00,
2013-02-10 23:25:00,32.4,31.9,29.41,ESE,120,0.0,0.0,98,0.00,,---,0.00,VWS V14.00,2013-02-11 05:25:00,
2013-02-10 23:30:00,32.4,31.9,29.41,ESE,120,0.0,0.0,98,0.00,,---,0.00,VWS V14.00,2013-02-11 05:30:00,
2013-02-10 23:35:00,32.5,32.3,29.38,ESE,120,0.0,0.0,99,0.00,,---,0.00,VWS V14.00,2013-02-11 05:35:00,
2013-02-10 23:40:00,32.5,32.3,29.38,SW,226,0.0,0.0,99,0.00,,---,0.00,VWS V14.00,2013-02-11 05:40:00,
2013-02-10 23:45:00,32.5,32.3,29.38,SW,226,0.0,0.0,99,0.00,,---,0.00,VWS V14.00,2013-02-11 05:45:00,
2013-02-10 23:50:00,32.5,32.3,29.38,South,191,0.0,0.0,99,0.00,,---,0.00,VWS V14.00,2013-02-11 05:50:00,
2013-02-10 23:55:00,32.5,32.3,29.38,South,191,0.0,0.0,99,0.00,,---,0.00,VWS V14.00,2013-02-11 05:55:00,